星链-30925 (STARLINK-30925 )

导读

STARLINK-30925是美国太空探索技术公司SpaceX星链互联网卫星星座中的一颗卫星,于2023年11月22日08:00发射入轨。星链计划旨在打造全球卫星互联网覆盖网络,为偏远地区、海上和空中提供高速互联网服务,STARLINK-30925的入轨进一步扩充了星链星座的服务容量。

Basic Information
目录编号:
58406
目录名称:
STARLINK-30925
国际标识:
2023-180E
轨道中心:
EARTH
卫星名称:
星链-30925
卫星全名:
星链-30925 (STARLINK-30925 )
卫星状态:
在轨 (已飞行939 天)
发射日期:
2023-11-22 UTC
国别 :
美国 (US)
星等 :
--
Orbit Information
数据来源 国际轨道数据 AOE轨道数据
星历时间 2026-06-17T03:27:48+0800
1天前
查看轨道信息
2026-06-16T07:00:00+0800
2天前
查看轨道信息
半长轴 6861.169km 6861.153km
偏心率 0.000148 0.0001463
轨道倾角 42.998° 42.999°
近地点辐角 271.567° 275.424°
升交点赤经 212.910° 217.726°
平近点角 88.502° 70.272°
近地点 482.016km 482.012km
远地点 484.048km 484.02km
周期 94.266分钟 94.266分钟
每日圈数 15.27586 15.275911
Detailed Information
固有亮度:
5
最大亮度:
0.3
卫星平台:
Starlink v2.0 mini
覆盖范围:
全球
运营商:
太空探索技术公司
运营商所在国:
美国
制造商(研发单位):
太空探索技术公司
制造商所在国:
美国
使用方式:
暂无
Satellite Introduction
星链(Starlink)计划是由太空探索技术公司(SpaceX)提出的一个巨型低轨卫星互联网星座项目,计划在2019年至2024年间在太空搭建由约1.2万颗卫星组成的“星链”网络,其中1584颗将部署在地球上空550千米处的近地轨道,并从2020年开始工作。该卫星仍在工作。
2D Orbit Map
3D Orbit Map
Orbit Altitude Analysis Chart
Orbit Inclination Analysis Chart
Orbit Comprehensive Analysis Chart
View Comprehensive Chart